This demonstration page uses our WeatherBlox Daily Observations layout. Learn more.

Left ArrowRight Arrow

Hourly Observations for September 14, 2017

Temp ( °F °C ) Dew Point ( °F °C ) Humidity (%) Winds ( mph kmh ) Pressure ( in mb ) Visibility ( mi km ) Precip ( " mm )
12:51 am 00:51 Clear 83 28.3 49 9.4 31 31 NW 10 17 29.67 1005 10 16.0934 0 0
1:51 am 01:51 Mostly Cloudy 81 27.2 49 9.4 33 33 NNW 8 13 29.68 1005 10 16.0934 0 0
2:51 am 02:51 Clear 79 26.1 51 10.6 38 38 NW 8 13 29.68 1005 10 16.0934 0 0.0254
3:51 am 03:51 Partly Cloudy 78 25.6 51 10.6 39 39 NW 8 13 29.69 1005 10 16.0934 0 0
4:51 am 04:51 Cloudy 81 27.2 51 10.6 35 35 WNW 9 15 29.7 1006 10 16.0934 0 0
5:51 am 05:51 Clear 77 25 52 11.1 42 42 NNE 3 6 29.73 1007 10 16.0934 0 0
6:51 am 06:51 Mostly Sunny 77 25 51 10.6 40 40 SSE 6 9 29.75 1008 10 16.0934 0 0
7:51 am 07:51 Sunny 81 27.2 53 11.7 38 38 S 3 6 29.76 1008 10 16.0934 0 0
8:51 am 08:51 Sunny 86 30 54 12.2 33 33 VRB 6 9 29.76 1008 10 16.0934 0 0
9:51 am 09:51 Sunny 89 31.7 53 11.7 29 29 Calm 29.76 1008 10 16.0934 0 0
10:51 am 10:51 Sunny 91 32.8 51 10.6 26 26 S 5 7 29.75 1007 10 16.0934 0 0
11:51 am 11:51 Sunny 93 33.9 51 10.6 24 24 SW 5 7 29.7 1006 10 16.0934 0 0
12:51 pm 12:51 Sunny 97 36.1 50 10 20 20 SSW 8 13 29.67 1005 10 16.0934 0 0
1:48 pm 13:48 Partly Cloudy with Nearby Thunderstorms 93 34 46 8 20 20 WSW 7 11 29.56 1001 10 16.0934 0 0
1:51 pm 13:51 Partly Cloudy with Nearby Thunderstorms 94 34.4 47 8.3 20 20 WSW 7 11 29.65 1004 10 16.0934 0 0.0254
2:03 pm 14:03 Partly Cloudy 95 35 48 8.9 20 20 W 12 19 29.53 1000 10 16.0934 0 0
2:23 pm 14:23 Mostly Sunny 96 35.6 48 8.9 19 19 WNW 12 19 29.53 1000 10 16.0934 0 0
2:51 pm 14:51 Sunny 93 33.9 48 8.9 21 21 WNW 7 11 29.63 1004 10 16.0934 0 0
3:51 pm 15:51 Mostly Cloudy with Light Rain 88 31.1 58 14.4 36 36 SSW 7 11 29.64 1004 6 9.65604 0 0.0254
4:51 pm 16:51 Mostly Sunny 94 34.4 49 9.4 21 21 SW 9 15 29.6 1002 10 16.0934 0.01 0.254
5:12 pm 17:12 Mostly Sunny 93 34 46 8 20 20 W 15 24 29.5 999 10 16.0934 0 0
5:51 pm 17:51 Sunny 91 32.8 45 7.2 20 20 W 14 22 29.62 1003 10 16.0934 0 0
6:51 pm 18:51 Clear 88 31.1 47 8.3 24 24 W 14 22 29.64 1004 10 16.0934 0 0
7:51 pm 19:51 Clear 83 28.3 50 10 32 32 NW 15 24 29.69 1005 10 16.0934 0 0
8:51 pm 20:51 Clear 83 28.3 50 10 32 32 NNW 12 19 29.69 1005 10 16.0934 0 0
9:51 pm 21:51 Clear 81 27.2 52 11.1 37 37 NW 10 17 29.7 1006 10 16.0934 0 0
10:51 pm 22:51 Clear 81 27.2 51 10.6 35 35 NNW 14 22 29.7 1006 10 16.0934 0 0
11:51 pm 23:51 Clear 80 26.7 51 10.6 37 37 NNW 15 24 29.7 1006 10 16.0934 0 0

Powered by AerisWeather